This is the latest recevied weather packets stored in our database for station/object F4GQK-13. If no packets are shown the sender has not sent any weather packets the latest 1 day(s).
| Time | Temp. | Humidity | Pressure | Rain* | Wind** | Luminosity | Snow |
|---|---|---|---|---|---|---|---|
| 1778056805 | 9.44° C | 94% | 1010.1 hPa | 0 mm | - | 262 W/m² | - |
| 1778056205 | 9.44° C | 96% | 1010.2 hPa | 0 mm | - | 126 W/m² | - |
| 1778055305 | 9.44° C | 98% | 1010.1 hPa | 0 mm | - | 167 W/m² | - |
| 1778054704 | 9.44° C | 98% | 1009.9 hPa | 0.25 mm | - | 147 W/m² | - |
| 1778054105 | 9.44° C | 98% | 1010 hPa | 0.25 mm | - | 164 W/m² | - |
| 1778049905 | 8.89° C | 99% | 1009.3 hPa | 0.25 mm | - | 22 W/m² | - |
| 1778048705 | 9.44° C | 99% | 1008.9 hPa | 0.25 mm | - | 27 W/m² | - |
| 1778046606 | 9.44° C | 99% | 1008.7 hPa | 0.51 mm | - | 24 W/m² | - |
| 1778046005 | 9.44° C | 99% | 1008.4 hPa | 0.51 mm | - | 13 W/m² | - |
| 1778045705 | 9.44° C | 99% | 1008.3 hPa | 0.51 mm | - | 10 W/m² | - |
| 1778043906 | 10° C | 99% | 1008.1 hPa | 0.76 mm | - | 6 W/m² | - |
| 1778043305 | 9.44° C | 99% | 1008 hPa | 0.51 mm | - | 4 W/m² | - |
| 1778042105 | 10° C | 99% | 1008 hPa | 0.51 mm | - | 1 W/m² | - |
| 1778041505 | 10° C | 99% | 1007.8 hPa | 0.76 mm | - | 1 W/m² | - |
| 1778041205 | 10° C | 99% | 1007.7 hPa | 0.76 mm | - | 1 W/m² | - |
| 1778040905 | 10° C | 99% | 1007.8 hPa | 0.51 mm | - | 1 W/m² | - |
| 1778040606 | 10° C | 99% | 1007.8 hPa | 0.51 mm | - | 0 W/m² | - |
| 1778039405 | 10° C | 99% | 1008 hPa | 0.51 mm | - | 0 W/m² | - |
| 1778038806 | 10° C | 99% | 1007.9 hPa | 0.51 mm | - | 0 W/m² | - |
| 1778038205 | 10° C | 99% | 1007.9 hPa | 0.51 mm | - | 0 W/m² | - |
| 1778037606 | 10° C | 99% | 1008.1 hPa | 0.25 mm | - | 0 W/m² | - |
| 1778037305 | 10° C | 99% | 1007.9 hPa | 0.25 mm | - | 0 W/m² | - |
| 1778037004 | 10° C | 99% | 1008 hPa | 0.25 mm | - | 0 W/m² | - |
| 1778036406 | 10° C | 99% | 1008 hPa | 0.25 mm | - | 0 W/m² | - |
| 1778035505 | 10° C | 99% | 1008.2 hPa | 0.76 mm | - | 0 W/m² | - |
* Rain latest hour (hover to see other rain measurements)
** Current wind speed in m/s (hover to see current wind gust speed)